Вернуться в каталог

COSMOS 1081

АктивенВоенныеLEO
NORAD 11296·PAYLOAD·🇷🇺 Russia

Запущен Mar 15, 1979 с Plesetsk Cosmodrome

Loading…

Ближайшие Пролёты (ближайшие 24 часа)

TLE

СвежийSource: Space-Track

Эпоха: Sep 14, 2026, 01:00 UTC

1 11296U 79024A   26257.04219917 -.00000021  00000-0 -28233-4 0  9993
2 11296  74.0302 265.0651 0040182 291.5550  97.6604 12.57294776180094

Отслеживайте COSMOS 1081 в реальном времени с AllMySat

Download on the App Store